Franklin, NC

8:13 PM EDT on March 23, 2017 (GMT -0400)
Franklin

Weather History for K1A5 - November, 2012

Change the Weather History Date:

Tuesday, November 6, 2012

  Actual Average (KTOC) Record (KTOC)
Temperature  
Mean Temperature 40 °F -  
Max Temperature 44 °F 65 °F 76 °F (2015)
Min Temperature 35 °F 40 °F 44 °F (2016)
Degree Days  
Heating Degree Days 26    
Moisture  
Dew Point 35 °F    
Average Humidity 80    
Maximum Humidity 100    
Minimum Humidity 66    
Precipitation  
Precipitation 0.20 in - - ()
Sea Level Pressure  
Sea Level Pressure 29.98 in    
Wind  
Wind Speed 0 mph (WNW)    
Max Wind Speed 5 mph    
Max Gust Speed -    
Visibility 10 miles    
Events Rain    
Averages and records for this station are not official NWS values.
T = Trace of Precipitation, MM = Missing Value Source: NWS Daily Summary

Daily Weather History Graph

Daily Weather History Graph

Search for Another Location

Airport or City:

Trip Planner

Search our weather history database for the weather conditions in past years. The results will help you decide how hot, cold, wet, or windy it might be!

Date:

Astronomy

Nov. 06, 2012 Rise Set
Actual Time 7:00 AM EST 5:33 PM EST
Civil Twilight 6:33 AM EST 6:00 PM EST
Nautical Twilight 6:03 AM EST 6:30 PM EST
Astronomical Twilight 5:33 AM EST 7:00 PM EST
Moon No Moon Rise 12:53 PM EST (11/6)
Length of Visible Light 11h 26m
Length of Day
10h 33m
Waning Gibbous, 53% of the Moon is Illuminated
Nov 6
Waning Gibbous
Nov 6
Last Quarter
Nov 13
New
Nov 20
First Quarter
Nov 28
Full

Hourly Weather History & Observations

Time (EST) Temp. Windchill Dew Point Humidity Pressure Visibility Wind Dir Wind Speed Gust Speed Precip Events Conditions
12:15 AM 35.6 °F - 32.0 °F 87% 30.01 in 10.0 mi Calm Calm - N/A   Overcast
12:35 AM 35.6 °F - 32.0 °F 87% 30.01 in 10.0 mi Calm Calm - N/A   Overcast
12:55 AM 37.4 °F - 32.0 °F 81% 30.00 in 10.0 mi Calm Calm - N/A   Light Drizzle
1:15 AM 37.4 °F - 32.0 °F 81% 29.99 in 10.0 mi Calm Calm - N/A   Light Drizzle
1:35 AM 37.4 °F - 33.8 °F 87% 29.99 in 10.0 mi Calm Calm - N/A   Light Drizzle
1:55 AM 37.4 °F - 33.8 °F 87% 29.99 in 10.0 mi Calm Calm - N/A   Light Drizzle
2:15 AM 37.4 °F - 33.8 °F 87% 29.99 in 10.0 mi Calm Calm - N/A   Light Drizzle
2:35 AM 39.2 °F - 33.8 °F 81% 30.00 in 10.0 mi Calm Calm - N/A Rain Light Rain
2:55 AM 39.2 °F - 35.6 °F 87% 30.00 in 10.0 mi Calm Calm - N/A   Drizzle
3:15 AM 39.2 °F - 35.6 °F 87% 30.01 in 10.0 mi Calm Calm - 0.01 in Rain Light Rain
3:35 AM 41.0 °F - 35.6 °F 81% 30.01 in 10.0 mi Calm Calm - 0.03 in Rain Rain
3:55 AM 41.0 °F - 37.4 °F 87% 30.01 in 7.0 mi Calm Calm - 0.06 in Rain Rain
4:15 AM 41.0 °F - 37.4 °F 87% 30.01 in 7.0 mi Calm Calm - 0.02 in Rain Light Rain
4:35 AM 41.0 °F - 37.4 °F 87% 30.01 in 10.0 mi Calm Calm - 0.03 in Rain Rain
4:55 AM 41.0 °F 39.0 °F 37.4 °F 87% 30.01 in 7.0 mi East 3.5 mph - 0.05 in Rain Rain
5:15 AM 39.2 °F - 37.4 °F 93% 30.02 in 7.0 mi Calm Calm - 0.01 in Rain Light Rain
5:35 AM 39.2 °F - 37.4 °F 93% 30.02 in 10.0 mi Calm Calm - 0.02 in Rain Light Rain
5:55 AM 39.2 °F - 37.4 °F 93% 30.01 in 7.0 mi Calm Calm - 0.03 in Rain Light Rain
6:15 AM 39.2 °F - 37.4 °F 93% 30.01 in 7.0 mi Calm Calm - 0.01 in Rain Light Rain
6:35 AM 39.2 °F - 37.4 °F 93% 30.02 in 7.0 mi Calm Calm - 0.01 in Rain Light Rain
6:55 AM 39.2 °F - 37.4 °F 93% 30.02 in 5.0 mi Calm Calm - 0.02 in Rain Light Rain
7:15 AM 37.4 °F - 37.4 °F 100% 30.03 in 7.0 mi Calm Calm - N/A Rain Light Rain
7:35 AM 37.4 °F - 37.4 °F 100% 30.03 in 7.0 mi Calm Calm - 0.01 in Rain Rain
7:55 AM 39.2 °F - 37.4 °F 93% 30.04 in 10.0 mi Calm Calm - 0.01 in   Drizzle
8:15 AM 39.2 °F - 35.6 °F 87% 30.04 in 10.0 mi Calm Calm - 0.01 in Rain Rain
8:35 AM 39.2 °F - 35.6 °F 87% 30.04 in 7.0 mi Calm Calm - 0.01 in Rain Light Rain
8:55 AM 39.2 °F - 35.6 °F 87% 30.04 in 10.0 mi Calm Calm - 0.02 in Rain Rain
9:15 AM 39.2 °F - 35.6 °F 87% 30.05 in 10.0 mi Calm Calm - N/A Rain Light Rain
9:35 AM 41.0 °F - 35.6 °F 81% 30.04 in 10.0 mi Calm Calm - 0.01 in Rain Rain
9:55 AM 41.0 °F - 35.6 °F 81% 30.04 in 10.0 mi Calm Calm - 0.01 in   Drizzle
10:15 AM 41.0 °F - 35.6 °F 81% 30.04 in 10.0 mi Calm Calm - N/A   Light Drizzle
10:35 AM 41.0 °F - 35.6 °F 81% 30.04 in 7.0 mi Calm Calm - N/A   Light Drizzle
10:55 AM 41.0 °F - 35.6 °F 81% 30.03 in 10.0 mi Calm Calm - N/A   Overcast
11:15 AM 42.8 °F - 35.6 °F 76% 30.01 in 10.0 mi Calm Calm - N/A   Overcast
11:35 AM 42.8 °F - 35.6 °F 76% 30.01 in 10.0 mi Calm Calm - N/A   Overcast
11:55 AM 42.8 °F - 33.8 °F 70% 30.01 in 10.0 mi Calm Calm - N/A   Overcast
12:15 PM 42.8 °F - 33.8 °F 70% 30.00 in 10.0 mi Calm Calm - N/A   Overcast
12:35 PM 42.8 °F - 33.8 °F 70% 29.99 in 10.0 mi Calm Calm - N/A   Overcast
12:55 PM 42.8 °F - 33.8 °F 70% 29.97 in 10.0 mi Calm Calm - N/A   Overcast
1:15 PM 44.6 °F - 33.8 °F 66% 29.97 in 10.0 mi Calm Calm - N/A   Overcast
1:35 PM 44.6 °F - 33.8 °F 66% 29.96 in 10.0 mi Calm Calm - N/A   Overcast
1:55 PM 44.6 °F - 33.8 °F 66% 29.95 in 10.0 mi Calm Calm - N/A   Overcast
2:15 PM 44.6 °F - 33.8 °F 66% 29.94 in 10.0 mi Calm Calm - N/A   Overcast
2:35 PM 44.6 °F 43.1 °F 33.8 °F 66% 29.93 in 10.0 mi West 3.5 mph - N/A   Overcast
2:55 PM 44.6 °F - 33.8 °F 66% 29.93 in 10.0 mi Calm Calm - N/A   Overcast
3:15 PM 44.6 °F 43.1 °F 33.8 °F 66% 29.93 in 10.0 mi WNW 3.5 mph - N/A   Overcast
3:35 PM 44.6 °F 42.2 °F 33.8 °F 66% 29.93 in 10.0 mi West 4.6 mph - N/A   Overcast
3:55 PM 44.6 °F - 33.8 °F 66% 29.93 in 10.0 mi Calm Calm - N/A   Overcast
4:15 PM 44.6 °F - 33.8 °F 66% 29.93 in 10.0 mi Calm Calm - N/A   Overcast
4:35 PM 44.6 °F - 35.6 °F 71% 29.93 in 10.0 mi Calm Calm - N/A   Overcast
5:15 PM 44.6 °F - 35.6 °F 71% 29.94 in 10.0 mi Calm Calm - N/A   Overcast
5:35 PM 44.6 °F - 33.8 °F 66% 29.94 in 10.0 mi Calm Calm - N/A   Overcast
5:55 PM 42.8 °F - 35.6 °F 76% 29.93 in 10.0 mi Calm Calm - N/A   Overcast
6:15 PM 42.8 °F - 35.6 °F 76% 29.93 in 10.0 mi Calm Calm - N/A   Overcast
6:35 PM 42.8 °F - 37.4 °F 81% 29.93 in 10.0 mi Calm Calm - N/A   Overcast
6:55 PM 42.8 °F - 37.4 °F 81% 29.93 in 10.0 mi Calm Calm - N/A   Overcast
7:15 PM 42.8 °F - 37.4 °F 81% 29.93 in 10.0 mi Calm Calm - N/A   Overcast
7:35 PM 42.8 °F - 37.4 °F 81% 29.93 in 10.0 mi Calm Calm - N/A   Overcast
7:55 PM 42.8 °F - 37.4 °F 81% 29.94 in 10.0 mi Calm Calm - N/A   Overcast
8:15 PM 42.8 °F - 37.4 °F 81% 29.94 in 10.0 mi Calm Calm - N/A   Overcast
8:35 PM 42.8 °F - 37.4 °F 81% 29.94 in 10.0 mi Calm Calm - N/A   Overcast
8:55 PM 42.8 °F - 37.4 °F 81% 29.95 in 10.0 mi Calm Calm - N/A   Overcast
9:15 PM 42.8 °F - 37.4 °F 81% 29.94 in 10.0 mi Calm Calm - N/A   Overcast
9:35 PM 42.8 °F - 37.4 °F 81% 29.94 in 10.0 mi Calm Calm - N/A   Overcast
9:55 PM 41.0 °F - 37.4 °F 87% 29.94 in 10.0 mi Calm Calm - N/A   Overcast
10:15 PM 42.8 °F - 37.4 °F 81% 29.94 in 10.0 mi Calm Calm - N/A   Overcast
10:35 PM 42.8 °F - 35.6 °F 76% 29.93 in 10.0 mi Calm Calm - N/A   Overcast
10:55 PM 41.0 °F - 33.8 °F 76% 29.92 in 10.0 mi Calm Calm - N/A   Overcast
11:15 PM 41.0 °F - 33.8 °F 76% 29.92 in 10.0 mi Calm Calm - N/A   Overcast
11:35 PM 41.0 °F - 35.6 °F 81% 29.92 in 10.0 mi Calm Calm - N/A   Light Drizzle
11:55 PM 41.0 °F - 35.6 °F 81% 29.91 in 10.0 mi Calm Calm - N/A Rain Rain